Theta_e
331 338 340 344 342 340 342 340 341 340 341 342 342 342 341 341 341 339 339 339 342 343 343 343 341 341 340 339 339 339 339 339 340 339 338 339 339 339 338 338 337 338 340
335 338 342 342 342 341 341 340 340 339 340 340 342 341 341 341 341 340 334 340 340 339 340 341 341 340 340 338 332 332 333 338 338 337 336 334 334 337 338 339 338 340 340
336 338 341 342 341 340 340 340 339 339 339 341 341 340 341 341 340 337 338 337 338 340 338 338 340 338 337 336 336 334 330 331 332 334 335 335 336 337 333 333 338 340 340
337 340 341 342 342 341 340 339 339 339 339 339 340 342 341 341 339 337 337 336 336 338 338 338 335 333 331 336 336 336 336 335 336 335 333 335 336 338 337 338 337 338 338
336 339 341 341 341 340 338 338 339 339 338 338 339 339 339 339 338 338 336 333 329 332 333 333 330 332 332 337 336 334 335 335 333 333 333 335 337 340 335 336 336 336 335
335 339 341 340 340 338 338 337 337 338 338 338 337 338 338 338 336 336 337 334 333 334 334 333 329 329 332 336 335 335 335 333 329 331 334 334 336 338 337 333 336 336 336
335 338 339 339 338 337 337 337 337 337 336 336 335 335 334 334 334 333 333 333 333 333 332 332 331 328 330 335 335 334 333 333 332 332 333 334 334 337 338 336 336 336 336
334 337 338 337 336 336 335 335 335 335 333 333 332 332 331 331 330 330 330 330 329 329 329 331 331 329 330 334 334 335 334 334 333 334 336 337 334 335 336 336 336 336 335
333 336 336 336 335 335 334 333 334 333 332 330 329 328 327 327 326 325 325 326 326 326 326 328 328 328 330 332 333 333 333 334 334 335 335 335 335 336 334 333 335 332 333
332 333 334 335 334 334 333 333 332 331 329 327 324 324 323 322 321 320 320 320 321 322 323 322 322 322 326 330 330 331 332 333 333 333 333 335 336 335 335 335 329 333 331
331 331 332 333 332 332 331 331 328 324 323 325 324 322 320 318 316 314 312 313 313 316 316 316 318 320 325 327 327 328 329 329 330 330 331 332 333 335 334 334 334 332 333
329 331 332 331 330 329 327 327 324 324 324 322 321 319 315 313 309 307 306 307 308 308 307 310 316 320 324 325 324 324 325 325 327 327 326 328 330 332 332 331 332 332 333
324 328 327 328 328 327 325 324 322 320 320 318 319 316 312 307 304 303 303 303 303 303 303 308 314 317 319 320 321 321 322 324 325 325 328 328 329 328 330 330 331 331 332
320 322 321 324 325 325 324 321 319 318 316 315 311 309 304 300 296 296 294 294 293 294 296 301 308 311 314 315 318 320 321 323 324 324 326 327 329 330 331 329 329 330 332
316 317 316 320 322 323 322 318 315 315 314 311 306 302 297 294 293 293 293 293 293 292 293 295 300 307 309 312 314 317 320 321 321 321 321 321 324 322 324 326 329 332 332
316 317 315 317 314 320 318 315 312 310 307 305 302 299 295 294 293 293 293 292 292 292 292 293 294 299 304 308 311 313 315 315 316 317 318 318 317 316 316 318 321 325 329
314 315 314 315 313 310 315 311 309 306 301 300 297 295 294 293 293 292 292 292 292 292 292 292 293 294 297 301 304 307 309 310 309 311 313 315 314 314 308 310 313 319 322
311 311 310 310 309 305 307 306 304 300 299 295 294 293 293 292 292 292 291 291 291 291 291 291 292 292 293 294 295 296 298 300 303 305 306 306 307 309 311 311 309 312 316
309 308 307 307 306 304 300 303 298 296 294 293 293 292 292 292 291 291 291 291 291 291 291 291 291 291 291 291 290 290 290 291 291 292 296 300 301 300 300 300 305 308 312
307 306 306 304 303 301 299 296 294 293 292 292 292 292 291 291 291 290 290 290 290 291 291 291 291 290 290 290 289 289 289 288 289 289 289 289 291 295 297 296 294 300 304
306 304 302 300 298 300 296 294 291 291 290 291 291 291 290 290 290 289 290 290 290 290 291 291 290 290 289 289 289 288 288 288 288 288 287 288 288 288 288 289 290 291 294
303 301 299 299 298 298 296 294 292 290 289 289 289 289 289 289 289 289 289 289 289 290 290 290 290 289 289 289 288 288 286 287 287 287 287 287 287 287 287 287 288 288 290
300 298 298 297 297 295 295 293 291 289 288 288 288 288 288 288 288 288 288 288 288 289 289 289 289 289 289 288 289 289 287 287 286 287 286 286 286 286 286 286 287 287 287
295 296 296 296 295 295 294 293 292 289 287 287 287 287 287 287 287 287 287 287 287 288 288 288 289 289 289 288 288 288 288 288 285 286 286 286 286 286 286 286 286 286 286
294 295 295 293 293 294 294 294 292 290 288 287 286 286 286 286 286 286 286 286 286 287 287 287 287 287 288 288 287 286 287 287 287 286 284 285 286 286 286 286 286 286 286
293 293 293 292 292 293 293 292 292 290 287 286 286 286 286 286 286 286 286 285 285 285 286 286 286 286 286 286 286 286 286 286 285 285 283 284 285 285 285 285 285 286 286
Wind_Speed
18 22 19 19 20 20 20 18 17 17 18 18 18 18 19 20 21 21 23 23 24 23 23 21 21 22 22 22 21 21 21 21 22 23 22 22 22 21 21 21 20 22 20
27 23 19 22 22 21 20 21 20 18 19 19 19 19 19 19 20 20 21 21 21 20 22 21 20 21 21 21 22 20 20 21 21 20 20 20 19 19 19 19 19 20 18
30 23 22 22 23 23 22 21 20 20 20 20 20 20 19 20 19 20 20 18 17 20 20 19 18 18 19 20 20 20 19 20 18 18 18 18 18 17 17 17 17 16 16
27 22 24 26 26 25 24 23 23 22 22 23 22 21 21 20 19 16 19 19 15 18 19 17 16 16 17 17 16 14 18 17 16 17 17 18 17 15 15 15 15 14 15
26 24 27 28 28 26 25 23 23 23 24 23 25 25 25 23 21 21 22 21 16 14 14 12 14 15 16 15 14 14 17 16 15 16 17 17 16 15 15 15 14 14 15
26 25 27 28 28 28 26 22 22 22 22 24 23 22 23 24 24 25 22 19 18 18 14 13 14 14 11 14 15 18 19 16 14 16 16 15 15 13 14 15 16 14 15
26 25 25 27 26 25 24 22 21 22 21 20 20 19 20 21 21 21 20 19 18 16 14 15 14 14 11 11 15 19 17 15 15 15 16 15 13 12 13 13 15 15 15
28 24 24 24 24 23 23 21 19 18 17 17 17 17 17 17 15 17 18 16 16 16 15 16 16 17 14 12 14 17 17 17 16 15 13 13 11 11 12 12 12 13 14
29 27 23 22 23 24 23 22 20 20 22 21 20 19 20 19 17 16 16 16 15 14 13 15 16 16 18 17 15 15 16 17 17 20 19 14 9 10 11 11 10 10 11
26 24 23 23 24 24 23 23 23 26 27 30 27 24 22 20 17 15 15 14 14 14 15 15 15 16 17 17 17 15 15 14 15 15 18 18 15 13 13 12 8 8 10
22 22 23 26 27 27 25 28 32 33 32 26 20 18 15 15 15 16 14 14 13 15 15 16 15 13 15 17 15 14 12 12 11 11 12 14 11 14 12 12 10 9 9
24 23 28 30 30 32 35 35 32 29 25 23 21 12 6 13 17 18 18 16 15 14 13 12 14 14 14 16 15 13 12 12 10 12 9 6 7 8 8 9 9 8 8
25 27 31 33 35 35 35 34 30 26 24 21 14 9 12 14 15 14 14 13 13 12 10 12 14 13 15 15 15 14 15 15 17 19 22 15 6 5 5 5 6 7 6
24 28 33 36 37 35 35 31 28 24 21 16 12 10 12 13 12 11 10 11 10 11 12 13 13 15 16 16 15 15 16 18 21 24 22 23 26 18 10 4 3 6 6
23 28 30 36 38 35 34 29 25 22 18 15 13 12 12 12 11 10 10 10 10 10 11 12 13 14 15 16 16 15 17 18 19 20 23 24 21 24 24 24 23 18 13
28 31 30 32 33 35 32 29 25 21 18 15 14 12 12 10 10 10 10 10 11 10 11 12 13 14 16 16 17 16 16 16 15 14 14 17 22 23 24 24 24 21 17
29 33 33 33 32 32 32 28 24 20 18 16 15 13 12 11 10 10 10 11 11 12 12 13 15 15 16 17 17 15 13 11 8 7 7 7 11 18 20 23 22 22 21
30 32 32 31 30 28 30 27 24 21 18 16 15 14 12 11 9 10 11 11 12 13 13 14 16 17 16 15 16 14 11 9 7 6 5 4 3 5 8 15 20 20 20
29 31 31 30 30 28 25 25 23 20 18 17 15 14 12 11 10 9 10 11 12 13 14 14 16 15 17 17 16 14 11 9 8 6 5 3 1 2 2 4 4 11 16
27 27 30 29 29 27 25 24 23 20 18 16 14 13 12 11 11 10 11 11 12 13 15 15 16 17 17 18 19 16 14 12 10 9 7 6 4 2 0 2 2 10 14
28 28 28 29 28 28 27 27 23 22 19 16 14 13 12 12 10 10 10 11 12 12 15 16 18 18 20 19 14 16 14 11 10 10 9 8 7 7 4 3 2 2 7
28 29 29 29 29 27 28 27 26 25 19 17 15 14 12 11 11 10 10 11 11 13 15 17 19 21 18 10 5 6 2 4 7 8 8 8 8 7 7 7 6 5 4
25 28 30 29 29 28 28 25 24 20 20 17 16 15 14 12 11 11 11 11 11 12 15 15 15 16 10 8 8 3 2 2 3 3 5 5 6 6 7 7 7 7 6
24 27 27 28 29 28 27 25 27 25 21 20 20 17 15 13 12 12 11 11 11 11 12 13 12 11 8 9 7 1 2 6 3 1 2 4 5 6 6 6 7 7 7
26 27 27 27 27 27 27 24 25 24 21 22 19 19 17 15 13 12 11 11 11 11 9 9 10 9 9 10 5 5 5 6 6 3 2 3 5 6 5 5 5 6 6
23 25 25 26 25 26 25 23 24 24 23 26 23 21 19 17 15 13 12 11 11 10 10 9 9 8 7 7 5 5 4 2 3 3 4 3 5 4 4 5 5 5 6
Wind_Direction
171 157 152 149 148 152 153 149 152 151 144 138 134 133 134 132 132 127 120 114 105 105 103 100 100 98 98 94 91 91 90 90 94 92 93 93 94 96 101 101 100 98 94
157 157 157 152 152 153 151 153 154 150 145 141 137 135 133 135 135 130 122 112 107 102 97 99 98 99 97 98 101 95 96 96 95 94 95 95 94 96 99 100 97 99 98
156 156 158 153 150 150 149 147 146 143 141 136 132 134 134 134 136 133 126 120 112 104 98 95 97 95 96 100 106 102 100 98 99 97 94 94 93 91 93 98 101 98 97
158 158 159 152 145 142 140 140 135 134 128 126 123 125 128 127 132 133 121 110 96 98 96 91 92 101 97 91 98 117 113 103 101 99 95 93 91 92 94 94 95 98 98
160 158 153 151 145 143 141 139 135 131 128 123 119 118 118 118 121 122 121 121 118 114 111 97 92 96 93 93 94 107 132 116 108 104 102 100 101 101 96 102 99 102 103
162 161 157 152 150 146 146 142 136 132 129 121 119 118 117 112 115 114 116 118 121 124 131 120 107 104 103 104 109 117 126 117 112 109 105 103 100 100 100 105 102 99 101
164 163 157 154 152 150 150 145 138 130 124 126 125 122 117 115 122 130 129 131 132 131 125 127 125 132 137 118 122 125 122 115 113 110 107 100 102 106 102 101 107 106 105
167 164 161 159 155 156 159 155 148 138 143 133 132 127 125 118 138 132 134 137 135 127 117 114 127 142 145 135 123 125 125 119 111 109 110 112 110 109 109 110 108 109 112
175 170 164 163 161 163 163 159 157 147 142 136 132 125 122 126 126 132 131 131 131 123 123 130 114 130 153 147 140 128 122 116 110 101 95 91 124 123 110 111 111 114 119
173 170 168 163 159 159 157 155 151 142 138 131 124 136 139 134 132 130 137 126 112 116 113 121 123 124 147 143 138 132 126 122 113 108 95 84 82 93 104 110 102 107 135
169 174 172 164 159 156 151 145 137 135 138 149 148 149 147 146 139 132 115 110 109 109 110 111 115 138 150 146 140 134 131 118 122 114 99 88 78 73 80 92 96 103 127
168 169 171 168 159 154 148 148 144 147 149 146 152 162 178 154 143 135 124 120 118 114 108 127 151 151 148 154 148 141 126 116 115 99 84 89 86 80 84 89 99 111 126
173 172 165 163 159 159 154 152 150 145 145 143 152 166 165 155 149 145 142 136 138 137 131 126 136 144 143 145 143 135 127 123 108 103 84 77 53 103 111 99 100 98 109
170 172 163 162 162 161 159 158 156 152 149 145 147 157 165 162 156 147 140 132 133 126 128 132 135 133 141 143 143 139 132 122 116 110 107 88 81 73 82 84 121 126 105
163 170 166 164 165 166 165 162 161 159 157 154 153 157 165 166 159 149 141 138 133 129 132 132 134 137 135 134 135 138 131 128 121 116 114 105 101 72 65 68 71 83 105
173 176 173 171 165 168 168 167 164 162 158 157 159 165 170 173 166 156 147 141 141 137 132 134 133 136 134 139 133 131 127 129 124 118 106 110 102 88 65 59 62 68 81
176 180 179 174 173 165 170 168 166 162 159 158 160 163 168 173 170 167 159 149 142 141 140 139 137 134 132 130 126 127 131 128 125 124 119 107 95 108 71 56 57 61 66
173 174 178 176 174 167 166 166 164 162 160 159 162 164 170 173 176 169 165 160 151 145 144 141 138 134 129 129 121 114 117 119 112 116 119 122 115 93 80 76 70 60 70
171 168 171 178 174 171 165 163 158 156 155 157 161 163 167 171 175 178 169 159 154 153 148 146 137 141 130 122 114 108 102 101 99 97 95 101 79 60 64 37 65 84 88
168 165 179 176 175 170 163 156 151 151 152 155 161 165 166 171 173 176 171 165 158 157 152 148 144 136 132 127 113 102 93 89 88 90 96 101 106 118 67 341 46 75 73
162 164 170 171 173 171 159 152 146 144 149 154 162 164 165 169 172 174 170 166 165 166 160 157 146 141 129 127 113 91 85 86 90 86 84 85 85 82 87 94 71 57 64
157 160 170 173 175 173 168 161 156 154 152 153 156 156 161 167 169 173 173 166 164 166 161 162 162 148 146 144 111 104 74 59 70 79 79 79 80 79 82 81 81 88 102
152 158 169 174 176 173 171 161 153 149 148 149 157 159 162 168 166 169 168 168 164 170 166 165 171 170 157 173 165 127 112 178 133 103 88 87 81 85 79 81 82 80 82
149 158 169 174 175 176 176 169 167 159 158 170 166 161 157 160 162 166 167 167 167 166 174 182 188 192 195 178 154 144 154 135 145 86 105 100 97 91 82 79 78 76 72
157 163 169 171 173 176 178 179 177 173 176 166 162 158 156 154 157 157 158 156 157 160 161 174 182 193 201 183 175 149 120 112 124 139 158 151 121 102 83 76 85 82 73
161 164 167 170 173 177 181 183 186 183 169 162 161 158 156 153 151 153 154 153 149 147 143 140 141 145 153 167 166 171 167 159 151 130 114 125 142 125 95 106 108 83 79